Regional Weather Roundup
Issued by NWS Sterling, VA

Home | Current Version | Previous Version | Text Only | Print | Product List | Glossary Off
Versions: 1 2 3 4 5 6 7 8 9 10 11 12 13 14 15 16 17 18 19 20 21 22 23 24 25 26 27 28 29 30 31 32 33 34 35 36 37 38 39 40 41 42 43 44 45 46 47 48 49 50

007
ASUS41 KLWX 050310
RWRLWX

REGIONAL WEATHER ROUNDUP
NATIONAL WEATHER SERVICE BALTIMORE MD/WASHINGTON DC
1000 PM EST SUN DEC 04 2016

Note: "FAIR" indicates few or no clouds below 12,000 feet
with no significant weather and/or obstructions to visibility.
 TC=TEMPERATURE CELSIUS

 * =Non NWS site. Station does not report precipitation (e.g. rain,
    snow, etc.), thunder, or fog.

DCZ001-MDZ009-015-VAZ040>042-051-053>054-050400-
WASHINGTON METRO

CITY           SKY/WX    TMP DP  RH WIND       PRES   REMARKS
WASHINGTON NAT LGT RAIN  43  36  76 S9        30.14F
DULLES         LGT RAIN  39  33  79 S7        30.11F
ANDREWS AFB    LGT RAIN  40  35  82 S7        30.12F
FT BELVOIR     LGT RAIN  40  35  81 SE5       30.13F
QUANTICO       LGT RAIN  42  34  73 SW12      30.16F
COLLEGE PARK*  CLOUDY    41  32  70 S5        30.13F
LEESBURG*      LGT RAIN  41  37  87 MISG      30.10F
MANASSAS*      CLOUDY    39  37  93 S8        30.13F
GAITHERSBURG*  CLOUDY    37  28  70 SE6       30.14F

$$

MDZ006>007-011-014-050400-
BALTIMORE METRO

CITY           SKY/WX    TMP DP  RH WIND       PRES   REMARKS
BWI AIRPORT    LGT RAIN  42  33  70 S5        30.13F
MD SCIENCE CTR   N/A     45  30  55 MISG      30.13F
MARTIN STATE   CLOUDY    45  36  70 S7        30.16F
ANNAPOLIS      LGT RAIN  45  32  60 S7        30.13F
FORT MEADE*    CLOUDY    37  34  87 CALM      30.15F

$$

MDZ012-015-019>023-050400-
MARYLAND EASTERN SHORE

CITY           SKY/WX    TMP DP  RH WIND       PRES   REMARKS
OCEAN CITY     CLOUDY    42  36  79 W3        30.17F
SALISBURY      CLOUDY    41  35  79 S3        30.16F
BAY BRIDGE AP* LGT RAIN  45  34  65 S7        30.15S
CAMBRIDGE*     CLOUDY    41  32  70 CALM      30.16S
EASTON*        MOCLDY    44  32  62 SW6       30.20S

$$

MDZ017>025-050400-
SOUTHERN MARYLAND

CITY           SKY/WX    TMP DP  RH WIND       PRES   REMARKS
PATUXENT RIVER LGT RAIN  43  35  73 S3        30.15F
ST INIGOES     CLOUDY    44  37  76 S6        30.15F
LEONARDTOWN*   CLOUDY    41  36  81 CALM      30.17F

$$

MDZ003>005-050400-
NORTH CENTRAL MARYLAND

CITY           SKY/WX    TMP DP  RH WIND       PRES   REMARKS
FREDERICK*     LGT RAIN  37  34  87 S5        30.12F
HAGERSTOWN APT LGT RAIN  40  30  67 S9        30.06F
WESTMINSTER*   CLOUDY    39  30  70 S8        30.08F

$$

MDZ501>502-050400-
WESTERN MARYLAND

CITY           SKY/WX    TMP DP  RH WIND       PRES   REMARKS
OAKLAND*       CLOUDY    30  30 100 SE13G18   29.86F FOG     WCI  20
CUMBERLAND*    NOT AVBL

$$

VAZ025>031-050400-
SHENANDOAH VALLEY

CITY           SKY/WX    TMP DP  RH WIND       PRES   REMARKS
WINCHESTER*    RAIN      36  32  87 S8        30.05F
FRONT ROYAL*   CLOUDY    36  34  93 CALM      30.04F
LURAY*         RAIN      36  36 100 SW7       30.04F
NEW MARKET*    CLOUDY    37  34  90 SW3       30.04F
STAUNTON*      LGT RAIN  35  34  96 S6        30.07F
WAYNESBORO*    CLOUDY    35  34  96 CALM      30.05F

$$

WVZ021-048>050-054>055-050400-
EASTERN WEST VIRGINIA PANHANDLE

CITY           SKY/WX    TMP DP  RH WIND       PRES   REMARKS
MARTINSBURG    LGT RAIN  38  33  82 S5        30.06F
PETERSBURG*    CLOUDY    39  36  88 S6        30.00F

$$

VAZ036>039-050-050400-
CENTRAL FOOTHILLS

CITY           SKY/WX    TMP DP  RH WIND       PRES   REMARKS
CHARLOTTESVILL LGT RAIN  39  36  89 S6        30.10F FOG
CULPEPER*      RAIN      39  37  95 S3        30.13F
ORANGE*        DRIZZLE   37  37 100 CALM      30.13F
GORDONSVILLE*  CLOUDY    37  37  98 CALM      30.11F FOG
WARRENTON*     RAIN      39  34  82 SE3       30.11F

$$

VAZ055>057-050400-
NORTH AND CENTRAL PIEDMONT

CITY           SKY/WX    TMP DP  RH WIND       PRES   REMARKS
FREDERICKSBRG* DRIZZLE   40  39  96 SE3       30.14F
STAFFORD*      HVY RAIN  38  38 100 S5        30.18F

$$

NCZ024-NYZ072-PAZ021-071-VAZ022-071-050400-
OTHER REGIONAL OBSERVATIONS

CITY           SKY/WX    TMP DP  RH WIND       PRES   REMARKS
NEW YORK CITY  CLOUDY    41  24  51 E8        30.18F
PHILADELPHIA   CLOUDY    43  31  62 S3        30.15F
PITTSBURGH     LGT RAIN  40  31  70 SE7       29.86F
ROANOKE        LGT RAIN  37  36  96 SE9       30.09F FOG
RICHMOND       LGT RAIN  39  37  92 SE6       30.14F
RALEIGH        LGT RAIN  42  40  92 E3        30.11F FOG

$$

ANZ530>537-050400-
MARINE OBSERVATIONS

STATION/POSITION TIME  TEMP    WIND        PRES
                       AIR SEA DIR/SP/G
                 (UTC) (F)     (DEG/KT/KT) (MB)
THOMAS PT LIGHT  0300   44 49  200/ 16/ 18   N/A
BALT KEY BRIDGE  0248   44     180/  9/ 10 1020.3F
COVE POINT       0248   43     210/  9/ 13 1021.8F
LEWISETTA        0248   43 48  210/  6/  8 1021.0F
SOLOMONS ISLAND  0248   44 51  190/  6/  8   N/A
PINEY POINT      0248          210/  9/ 11   N/A

$$





USA.gov is the U.S. government's official web portal to all federal, state and local government web resources and services.